La Porte, IN

5:55 AM CST on November 18, 2017 (GMT -0600)
La Porte Municipal

Weather History for KPPO - May, 2012

Change the Weather History Date:

Friday, May 11, 2012

  Actual Average (KSBN) Record (KSBN)
Temperature  
Mean Temperature 54 °F -  
Max Temperature 73 °F 69 °F 88 °F (1896)
Min Temperature 35 °F 47 °F 26 °F (1907)
Degree Days  
Heating Degree Days 11    
Growing Degree Days 4 (Base 50)    
Moisture  
Dew Point 35 °F    
Average Humidity 49    
Maximum Humidity 93    
Minimum Humidity 18    
Precipitation  
Precipitation 0.00 in - - ()
Sea Level Pressure  
Sea Level Pressure 30.13 in    
Wind  
Wind Speed 3 mph ()    
Max Wind Speed 14 mph    
Max Gust Speed 20 mph    
Visibility 10.0 miles    
Events      
Averages and records for this station are not official NWS values.
T = Trace of Precipitation, MM = Missing Value Source: Averaged Metar Reports

Daily Weather History Graph

Daily Weather History Graph

Search for Another Location

Airport or City:

Trip Planner

Search our weather history database for the weather conditions in past years. The results will help you decide how hot, cold, wet, or windy it might be!

Date:

Astronomy

May. 11, 2012 Rise Set
Actual Time 5:31 AM CDT 7:55 PM CDT
Civil Twilight 4:59 AM CDT 8:27 PM CDT
Nautical Twilight 4:21 AM CDT 9:06 PM CDT
Astronomical Twilight 3:38 AM CDT 9:49 PM CDT
Moon 12:34 AM CDT (5/11) 11:04 AM CDT (5/11)
Length of Visible Light 15h 27m
Length of Day
14h 24m
Waning Gibbous, 63% of the Moon is Illuminated
May 11
Waning Gibbous
May 12
Last Quarter
May 20
New
May 28
First Quarter
Jun 4
Full

Hourly Weather History & Observations

Time (CDT) Temp. Dew Point Humidity Pressure Visibility Wind Dir Wind Speed Gust Speed Precip Events Conditions
12:15 AM 41.0 °F 35.6 °F 81% 30.08 in 10.0 mi Calm Calm - N/A   Scattered Clouds
12:35 AM 39.2 °F 33.8 °F 81% 30.08 in 10.0 mi Calm Calm - N/A   Scattered Clouds
12:55 AM 39.2 °F 35.6 °F 87% 30.08 in 10.0 mi Calm Calm - N/A   Scattered Clouds
1:15 AM 39.2 °F 35.6 °F 87% 30.08 in 10.0 mi Calm Calm - N/A   Clear
1:35 AM 39.2 °F 35.6 °F 87% 30.08 in 10.0 mi Calm Calm - N/A   Scattered Clouds
1:55 AM 37.4 °F 33.8 °F 87% 30.08 in 10.0 mi Calm Calm - N/A   Scattered Clouds
2:15 AM 37.4 °F 33.8 °F 87% 30.08 in 10.0 mi Calm Calm - N/A   Scattered Clouds
2:35 AM 37.4 °F 33.8 °F 87% 30.08 in 10.0 mi Calm Calm - N/A   Scattered Clouds
2:55 AM 37.4 °F 35.6 °F 93% 30.09 in 10.0 mi Calm Calm - N/A   Scattered Clouds
3:15 AM 37.4 °F 33.8 °F 87% 30.09 in 10.0 mi Calm Calm - N/A   Clear
3:35 AM 37.4 °F 33.8 °F 87% 30.10 in 10.0 mi Calm Calm - N/A   Clear
3:55 AM 37.4 °F 35.6 °F 93% 30.11 in 10.0 mi Calm Calm - N/A   Clear
4:15 AM 37.4 °F 35.6 °F 93% 30.11 in 10.0 mi Calm Calm - N/A   Clear
4:35 AM 35.6 °F 33.8 °F 93% 30.11 in 10.0 mi Calm Calm - N/A   Clear
4:55 AM 37.4 °F 33.8 °F 87% 30.11 in 10.0 mi Calm Calm - N/A   Clear
5:15 AM 35.6 °F 33.8 °F 93% 30.11 in 10.0 mi Calm Calm - N/A   Clear
5:35 AM 35.6 °F 32.0 °F 87% 30.12 in 10.0 mi Calm Calm - N/A   Clear
5:55 AM 35.6 °F 33.8 °F 93% 30.13 in 10.0 mi Calm Calm - N/A   Clear
6:15 AM 37.4 °F 35.6 °F 93% 30.14 in 10.0 mi Calm Calm - N/A   Clear
6:35 AM 41.0 °F 37.4 °F 87% 30.14 in 10.0 mi Calm Calm - N/A   Clear
6:55 AM 44.6 °F 37.4 °F 76% 30.15 in 10.0 mi Calm Calm - N/A   Clear
7:15 AM 46.4 °F 35.6 °F 66% 30.15 in 10.0 mi Calm Calm - N/A   Clear
7:35 AM 50.0 °F 37.4 °F 62% 30.16 in 10.0 mi Calm Calm - N/A   Clear
7:55 AM 51.8 °F 35.6 °F 54% 30.15 in 10.0 mi South 6.9 mph - N/A   Clear
8:15 AM 53.6 °F 37.4 °F 54% 30.15 in 10.0 mi South 4.6 mph - N/A   Clear
8:35 AM 55.4 °F 37.4 °F 51% 30.15 in 10.0 mi SSE 4.6 mph - N/A   Clear
8:55 AM 57.2 °F 37.4 °F 48% 30.16 in 10.0 mi South 3.5 mph - N/A   Clear
9:15 AM 59.0 °F 33.8 °F 39% 30.15 in 10.0 mi SSW 4.6 mph - N/A   Clear
9:35 AM 60.8 °F 32.0 °F 34% 30.16 in 10.0 mi South 6.9 mph - N/A   Clear
9:55 AM 62.6 °F 30.2 °F 30% 30.16 in 10.0 mi South 6.9 mph - N/A   Clear
10:15 AM 64.4 °F 32.0 °F 30% 30.16 in 10.0 mi South 8.1 mph - N/A   Clear
10:35 AM 64.4 °F 32.0 °F 30% 30.16 in 10.0 mi SSW 5.8 mph - N/A   Clear
10:55 AM 66.2 °F 32.0 °F 28% 30.16 in 10.0 mi SSE 6.9 mph - N/A   Clear
11:15 AM 68.0 °F 30.2 °F 24% 30.16 in 10.0 mi SSW 8.1 mph - N/A   Clear
11:35 AM 68.0 °F 30.2 °F 24% 30.16 in 10.0 mi South 8.1 mph - N/A   Clear
11:55 AM 69.8 °F 28.4 °F 21% 30.16 in 10.0 mi South 10.4 mph - N/A   Clear
12:15 PM 69.8 °F 24.8 °F 18% 30.15 in 10.0 mi SSW 11.5 mph - N/A   Clear
12:35 PM 69.8 °F 26.6 °F 20% 30.15 in 10.0 mi SSW 10.4 mph - N/A   Clear
12:55 PM 71.6 °F 32.0 °F 23% 30.15 in 10.0 mi SW 11.5 mph - N/A   Clear
1:15 PM 71.6 °F 28.4 °F 20% 30.14 in 10.0 mi SW 6.9 mph 17.3 mph N/A   Clear
1:35 PM 71.6 °F 28.4 °F 20% 30.14 in 10.0 mi SW 10.4 mph 19.6 mph N/A   Clear
1:55 PM 71.6 °F 30.2 °F 22% 30.14 in 10.0 mi WSW 10.4 mph - N/A   Clear
2:15 PM 71.6 °F 32.0 °F 23% 30.14 in 10.0 mi SW 9.2 mph 19.6 mph N/A   Clear
2:35 PM 71.6 °F 32.0 °F 23% 30.14 in 10.0 mi WSW 10.4 mph - N/A   Clear
2:55 PM 73.4 °F 32.0 °F 22% 30.14 in 10.0 mi SW 10.4 mph 18.4 mph N/A   Clear
3:15 PM 73.4 °F 32.0 °F 22% 30.13 in 10.0 mi SW 9.2 mph - N/A   Clear
3:35 PM 73.4 °F 32.0 °F 22% 30.12 in 10.0 mi SW 4.6 mph - N/A   Clear
3:55 PM 73.4 °F 35.6 °F 25% 30.11 in 10.0 mi SW 10.4 mph - N/A   Clear
4:15 PM 73.4 °F 35.6 °F 25% 30.11 in 10.0 mi SSW 8.1 mph - N/A   Clear
4:35 PM 73.4 °F 33.8 °F 23% 30.11 in 10.0 mi South 8.1 mph - N/A   Clear
4:55 PM 73.4 °F 33.8 °F 23% 30.11 in 10.0 mi SSW 9.2 mph 19.6 mph N/A   Clear
5:15 PM 73.4 °F 33.8 °F 23% 30.11 in 10.0 mi SW 13.8 mph - N/A   Clear
5:35 PM 73.4 °F 33.8 °F 23% 30.11 in 10.0 mi SW 11.5 mph - N/A   Clear
5:55 PM 73.4 °F 35.6 °F 25% 30.11 in 10.0 mi SW 10.4 mph - N/A   Clear
6:15 PM 73.4 °F 35.6 °F 25% 30.10 in 10.0 mi SSW 11.5 mph - N/A   Clear
6:35 PM 73.4 °F 35.6 °F 25% 30.10 in 10.0 mi SSW 9.2 mph - N/A   Clear
6:55 PM 71.6 °F 35.6 °F 27% 30.10 in 10.0 mi SSW 9.2 mph 17.3 mph N/A   Clear
7:15 PM 69.8 °F 35.6 °F 28% 30.11 in 10.0 mi SSW 6.9 mph - N/A   Clear
7:35 PM 69.8 °F 35.6 °F 28% 30.11 in 10.0 mi SSW 5.8 mph - N/A   Clear
7:55 PM 68.0 °F 37.4 °F 33% 30.11 in 10.0 mi SSW 4.6 mph - N/A   Clear
8:15 PM 64.4 °F 39.2 °F 40% 30.12 in 10.0 mi SSW 4.6 mph - N/A   Clear
8:35 PM 68.0 °F 35.6 °F 30% 30.13 in 10.0 mi South 4.6 mph - N/A   Scattered Clouds
8:55 PM 66.2 °F 37.4 °F 35% 30.14 in 10.0 mi South 3.5 mph - N/A   Mostly Cloudy
9:15 PM 64.4 °F 37.4 °F 37% 30.14 in 10.0 mi South 3.5 mph - N/A   Scattered Clouds
9:35 PM 64.4 °F 39.2 °F 40% 30.14 in 10.0 mi SSW 3.5 mph - N/A   Clear
9:55 PM 62.6 °F 39.2 °F 42% 30.14 in 10.0 mi SSW 3.5 mph - N/A   Scattered Clouds
10:15 PM 60.8 °F 41.0 °F 48% 30.14 in 10.0 mi SSW 3.5 mph - N/A   Scattered Clouds
10:35 PM 60.8 °F 41.0 °F 48% 30.15 in 10.0 mi SSW 3.5 mph - N/A   Scattered Clouds
10:55 PM 60.8 °F 41.0 °F 48% 30.15 in 10.0 mi SSW 4.6 mph - N/A   Clear
11:15 PM 59.0 °F 41.0 °F 51% 30.15 in 10.0 mi SSW 5.8 mph - N/A   Clear
11:35 PM 60.8 °F 41.0 °F 48% 30.15 in 10.0 mi SSW 5.8 mph - N/A   Clear
11:55 PM 60.8 °F 41.0 °F 48% 30.16 in 10.0 mi SSW 5.8 mph - N/A   Scattered Clouds